Location: DARK SKY Beskydy - Park tmavé oblohy, www.darkskybeskydy.cz
(49.4926°N, 18.5016°E)
Time: 17:05:41
(UTC+02:00)

PCSat - Pass Details

Date: 08 August 2024
Orbit: 781 x 792 km, 67.0° (Epoch: 13 September)

Event Time Altitude Azimuth Distance (km) Brightness Sun altitude
Rises 02:06:35 0° 325° (NW) 3,301 13.3 -22.4°
Reaches altitude 10° 02:09:04 10° 330° (NNW) 2,369 12.5 -22.3°
Maximum altitude 02:14:24 54° 48° (NE) 958 10.2 -22.0°
Drops below altitude 10° 02:19:42 10° 126° (SE) 2,355 11.9 -21.6°
Sets 02:22:10 0° 131° (SE) 3,280 12.6 -21.5°
Enters shadow 02:22:14 - 131° (SE) 3,308 12.6 -21.5°
